Location: Stockholm
(59.3330°N, 18.0500°E)
Time: 13:57:48
(UTC+01:00)

Envisat - Pass Details

Date: 28 November 2022
Orbit: 763 x 765 km, 98.2° (Epoch: 29 January)

Event Time Altitude Azimuth Distance (km) Brightness Sun altitude
Rises 05:02:23 0° 16° (NNE) 3,250 6.4 -22.4°
Reaches altitude 10° 05:04:43 10° 12° (NNE) 2,320 5.6 -22.1°
Maximum altitude 05:09:44 58° 295° (WNW) 893 3.0 -21.5°
Enters shadow 05:11:24 39° 236° (WSW) 1,146 3.5 -21.3°
